WESTFORD NEEDLES, 2367

Orbit data source: Space-Track

WESTFORD NEEDLES, 2367 is space debris originally from a launch on Thu, 09 May 1963 UTC launched from the Air Force Western Test Range (AFWTR). Debris objects in space refer to the collection of defunct objects orbiting the Earth. Examples of debris include non-operational satellites, rocket bodies, and fragments generated from explosions, collisions, or faulty payload assembly.

Loading next visibility...
Identifier
2367, 1963-014S
Orbit
Active
Country
Flag of USUS
Related business
Manufacturer
Unknown
Mission
Spacecraft
Bus & Motor
Unknown
Mass
Unknown
Launch date (UTC)
1963-05-09 (63 years ago)
Launch vehicle
Unknown
Launch site
Air Force Western Test Range (AFWTR)
Object type
Payload
Rocket body
Debris
Shape & HBR
Unknown shape, 0.2 m
Radar Cross Section
Medium (>0.1 m² and <1 m²)

Expand to show TLE details & history
Last TLE update: 19 hours ago

TLE from 19 hours ago
0 WESTFORD NEEDLES
1  2367U 63014S   26197.56585840  .00052442  00000-0  28642-1 0  9998
2  2367  84.2416  51.1258 2912004  63.5738 323.4042  9.11740809 14661
Epoch: 2026-07-16T13:34Z
TLE epoch observation values (Epoch: 2026-07-16T13:34:50.165Z)
Latitude
-0.00009°
Longitude
-86.98871°
Altitude
1,462.138 km
Speed
7.78 km/s
True Right ascension
03h 24m 30s
True Declination
0° 00' 00"
Sunlit
Object was in daylight at epoch
Visualization orbit readout
Latitude
Unknown
Longitude
Unknown
Altitude
Unknown
Speed
Unknown
Apparent Right ascension
Unknown
Apparent Declination
Unknown
Sunlit
N/A
Visualization observer readout
Local Sidereal Time
21:21:48
Azimuth
Unknown
Elevation
Unknown
Doppler factor
Unknown
Orbital elements
Apogee altitude
6,115.87 km
Perigee altitude
480.401 km
Semi-major axis
9,676.273 km
Eccentricity
0.2912
Inclination
84.2416°
RAAN
51.1258°
Arg. of periapsis
63.5738°
True anomaly
296.5352°
Mean anomaly
323.4042°
Eccentric anomaly
310.76799°
Mean motion
2.28024 °/min
Orbital period
157.88 mins
BSTAR
0.028642
Loading maneuver chart data...
Computing Atmospheric mass density...

Documentation

Showing up to 5 results
|